ATLAS 5 CENTAUR DEB, 46667

Orbit data source: Space-Track

ATLAS 5 CENTAUR DEB, 46667 is space debris in HEO originally from a launch on Wed, 17 Oct 2018 UTC launched from the Air Force Eastern Test Range (AFETR). Debris objects in space refer to the collection of defunct objects orbiting the Earth. Examples of debris include non-operational satellites, rocket bodies, and fragments generated from explosions, collisions, or faulty payload assembly.

Loading next visibility...
Identifier
46667, 2018-079CV
Orbit
HEO
Country
Flag of USUS
Related business
Flag of USUnited Launch Alliance/Lockheed Martin (US)
Manufacturer
ULA Decatur
Mission
Spacecraft
Bus & Motor
Unknown
Mass
Unknown
Launch date (UTC)
2018-10-17 (8 years ago)
Launch vehicle
Unknown
Launch site
Air Force Eastern Test Range (AFETR)
Object type
Payload
Rocket body
Debris
Shape & HBR
Unknown shape, 1.1 m
Radar Cross Section
RCS unknown

Expand to show TLE details & history
Last TLE update: 4 days ago

TLE from 4 days ago
0 ATLAS 5 CENTAUR DEB
1 46667U 18079CV  26169.27185255 -.00000131  00000-0  00000-0 0  9999
2 46667  13.5320   5.0090 4536644  17.4813 354.1667  1.95386694 40596
Epoch: 2026-06-18T06:31Z
TLE epoch observation values (Epoch: 2026-06-18T06:31:28.060Z)
Latitude
0.00009°
Longitude
0.63423°
Altitude
8,625.03 km
Speed
6.196 km/s
True Right ascension
00h 20m 04s
True Declination
0° 00' 00"
Sunlit
Object was in daylight at epoch
Visualization orbit readout
Latitude
Unknown
Longitude
Unknown
Altitude
Unknown
Speed
Unknown
Apparent Right ascension
Unknown
Apparent Declination
Unknown
Sunlit
N/A
Visualization observer readout
Local Sidereal Time
02:13:09
Azimuth
Unknown
Elevation
Unknown
Doppler factor
Unknown
Orbital elements
Apogee altitude
32,913.811 km
Perigee altitude
8,389.089 km
Semi-major axis
27,029.587 km
Eccentricity
0.45366
Inclination
13.532°
RAAN
5.009°
Arg. of periapsis
17.4813°
True anomaly
342.74771°
Mean anomaly
354.1667°
Eccentric anomaly
349.37337°
Mean motion
0.48841 °/min
Orbital period
737.09 mins
BSTAR
0
Loading maneuver chart data...
Computing Atmospheric mass density...

Documentation

Showing up to 5 results
|